SYR341 LFPO-OSDI

Flight info

Callsign SYR341
Flight time 3h 53m
Altitude 36000
Route BUBLI UG42 LUVAL DCT BEGAR N491 DEGES N871 MADEB N606 ELMEM L607 GEDSO DCT DEGUM DCT PODET DCT TUVAR DCT ETIDA T390 RILEX UL867 ENESU UL614 YAA UW714 SULTA UT409 ROXUK UN617 ERVAG UT179 KFK UB545 OKLAM UL620 MUT UB545 VESAR DCT LEBOR
Aircraft A343/H-SDE2E3FGHIJ4J5M1RWXY/LB1D1

Departure

Time 2026-05-05 12:38
Airport Paris-Orly Airport (LFPO)

Arrival

Time 2026-05-05 16:32
Airport Damascus International Airport (OSDI)
Time Latitude Longitude Altitude Speed Heading
2026-05-05 12:11 48.72860 2.37556 290 ft 0 kts 343°
2026-05-05 12:24 48.72857 2.37557 289 ft 3 kts 343°
2026-05-05 12:25 48.72831 2.37569 293 ft 4 kts 343°
2026-05-05 12:25 48.72810 2.37578 291 ft 3 kts 343°
2026-05-05 12:25 48.72788 2.37594 293 ft 4 kts 304°
2026-05-05 12:25 48.72783 2.37628 292 ft 3 kts 255°
2026-05-05 12:26 48.72789 2.37664 291 ft 2 kts 255°
2026-05-05 12:26 48.72790 2.37667 291 ft 4 kts 255°
2026-05-05 12:29 48.72789 2.37662 291 ft 3 kts 255°
2026-05-05 12:30 48.72781 2.37621 292 ft 5 kts 255°
2026-05-05 12:30 48.72770 2.37563 292 ft 7 kts 254°
2026-05-05 12:30 48.72757 2.37494 290 ft 7 kts 254°
2026-05-05 12:30 48.72743 2.37417 291 ft 8 kts 254°
2026-05-05 12:31 48.72728 2.37332 292 ft 9 kts 254°
2026-05-05 12:31 48.72711 2.37242 292 ft 9 kts 254°
2026-05-05 12:31 48.72693 2.37147 292 ft 10 kts 254°
2026-05-05 12:31 48.72674 2.37045 294 ft 10 kts 253°
2026-05-05 12:32 48.72654 2.36938 292 ft 11 kts 254°
2026-05-05 12:32 48.72631 2.36829 294 ft 11 kts 251°
2026-05-05 12:32 48.72605 2.36717 291 ft 12 kts 250°
2026-05-05 12:32 48.72575 2.36602 294 ft 12 kts 250°
2026-05-05 12:33 48.72552 2.36480 292 ft 12 kts 255°
2026-05-05 12:33 48.72529 2.36354 293 ft 13 kts 254°
2026-05-05 12:33 48.72506 2.36225 293 ft 13 kts 255°
2026-05-05 12:33 48.72482 2.36093 292 ft 13 kts 254°
2026-05-05 12:34 48.72467 2.35957 289 ft 13 kts 271°
2026-05-05 12:34 48.72478 2.35820 292 ft 13 kts 276°
2026-05-05 12:34 48.72466 2.35694 290 ft 12 kts 253°
2026-05-05 12:34 48.72423 2.35619 291 ft 7 kts 192°
2026-05-05 12:35 48.72379 2.35632 293 ft 7 kts 165°
2026-05-05 12:35 48.72333 2.35641 293 ft 6 kts 189°
2026-05-05 12:35 48.72295 2.35620 292 ft 6 kts 200°
2026-05-05 12:35 48.72249 2.35600 293 ft 8 kts 188°
2026-05-05 12:36 48.72197 2.35614 293 ft 8 kts 165°
2026-05-05 12:36 48.72142 2.35635 293 ft 8 kts 166°
2026-05-05 12:36 48.72082 2.35670 291 ft 10 kts 151°
2026-05-05 12:36 48.72032 2.35747 294 ft 11 kts 124°
2026-05-05 12:37 48.71995 2.35845 293 ft 11 kts 118°
2026-05-05 12:37 48.71964 2.35947 290 ft 10 kts 105°
2026-05-05 12:37 48.71976 2.36046 293 ft 14 kts 74°
2026-05-05 12:37 48.72048 2.36434 292 ft 68 kts 74°
2026-05-05 12:38 48.72225 2.37395 291 ft 120 kts 75°
2026-05-05 12:38 48.72488 2.38776 486 ft 145 kts 71°
2026-05-05 12:38 48.72784 2.40239 1064 ft 146 kts 72°
2026-05-05 12:38 48.73085 2.41720 1674 ft 149 kts 69°
2026-05-05 12:39 48.73384 2.43318 2130 ft 170 kts 71°
2026-05-05 12:39 48.73690 2.45105 2836 ft 180 kts 72°
2026-05-05 12:39 48.73965 2.47037 3522 ft 196 kts 81°
2026-05-05 12:39 48.74089 2.49215 4164 ft 222 kts 85°
2026-05-05 12:40 48.74183 2.51674 4902 ft 243 kts 86°
2026-05-05 12:40 48.74282 2.54278 5865 ft 251 kts 86°
2026-05-05 12:40 48.74410 2.56940 6812 ft 255 kts 83°
2026-05-05 12:40 48.74624 2.59583 7799 ft 258 kts 82°
2026-05-05 12:41 48.74860 2.62311 8733 ft 264 kts 82°
2026-05-05 12:41 48.75097 2.65116 9617 ft 271 kts 82°
2026-05-05 12:41 48.75332 2.67989 10308 ft 281 kts 83°
2026-05-05 12:41 48.75578 2.71018 10667 ft 300 kts 83°
2026-05-05 12:42 48.75828 2.74247 10999 ft 318 kts 83°
2026-05-05 12:42 48.76089 2.77667 11314 ft 335 kts 83°
2026-05-05 12:42 48.76362 2.81250 11739 ft 348 kts 83°
2026-05-05 12:42 48.76641 2.84929 12362 ft 355 kts 84°
2026-05-05 12:43 48.76925 2.88669 13042 ft 360 kts 84°
2026-05-05 12:43 48.77212 2.92469 13722 ft 365 kts 84°
2026-05-05 12:43 48.77501 2.96308 14351 ft 369 kts 84°
2026-05-05 12:43 48.77819 3.00196 14989 ft 374 kts 82°
2026-05-05 12:44 48.78287 3.04089 15655 ft 378 kts 80°
2026-05-05 12:44 48.78784 3.07980 16266 ft 383 kts 80°
2026-05-05 12:44 48.79284 3.11986 16869 ft 388 kts 81°
2026-05-05 12:44 48.79776 3.16029 17551 ft 392 kts 81°
2026-05-05 12:45 48.80267 3.20111 18205 ft 395 kts 81°
2026-05-05 12:45 48.80757 3.24231 18803 ft 399 kts 81°
2026-05-05 12:45 48.81249 3.28399 19483 ft 403 kts 81°
2026-05-05 12:45 48.81744 3.32617 20093 ft 408 kts 81°
2026-05-05 12:46 48.82102 3.36907 20698 ft 411 kts 88°
2026-05-05 12:46 48.82043 3.41255 21312 ft 413 kts 95°
2026-05-05 12:46 48.81787 3.45564 21882 ft 417 kts 97°
2026-05-05 12:46 48.81498 3.49970 22428 ft 421 kts 97°
2026-05-05 12:47 48.81207 3.54412 22901 ft 426 kts 97°
2026-05-05 12:47 48.80915 3.58899 23383 ft 429 kts 97°
2026-05-05 12:47 48.80621 3.63427 23805 ft 432 kts 97°
2026-05-05 12:47 48.80324 3.67990 24228 ft 435 kts 97°
2026-05-05 12:48 48.80024 3.72574 24648 ft 438 kts 97°
2026-05-05 12:48 48.79823 3.75627 24911 ft 440 kts 97°
2026-05-05 12:48 48.79518 3.80255 25307 ft 443 kts 97°
2026-05-05 12:48 48.79208 3.84920 25713 ft 445 kts 97°
2026-05-05 12:49 48.78895 3.89610 26093 ft 448 kts 98°
2026-05-05 12:49 48.78579 3.94325 26508 ft 450 kts 98°
2026-05-05 12:49 48.78259 3.99057 26956 ft 453 kts 98°
2026-05-05 12:49 48.77934 4.03836 27326 ft 456 kts 98°
2026-05-05 12:50 48.77559 4.08633 27686 ft 458 kts 101°
2026-05-05 12:50 48.76835 4.13321 28027 ft 457 kts 110°
2026-05-05 12:50 48.75644 4.17728 28379 ft 457 kts 119°
2026-05-05 12:50 48.74010 4.21858 28730 ft 458 kts 125°
2026-05-05 12:51 48.72209 4.25859 29063 ft 459 kts 127°
2026-05-05 12:51 48.70349 4.29807 29376 ft 462 kts 127°
2026-05-05 12:51 48.68457 4.33755 29694 ft 464 kts 128°
2026-05-05 12:51 48.66560 4.37702 30111 ft 462 kts 127°
2026-05-05 12:52 48.64687 4.41617 30675 ft 457 kts 127°
2026-05-05 12:52 48.62833 4.45510 31094 ft 455 kts 127°
2026-05-05 12:52 48.60987 4.49395 31493 ft 455 kts 127°
2026-05-05 12:52 48.59150 4.53269 31931 ft 453 kts 127°
2026-05-05 12:53 48.57315 4.57139 32341 ft 452 kts 127°
2026-05-05 12:53 48.55506 4.60951 32720 ft 451 kts 127°
2026-05-05 12:53 48.53680 4.64794 33048 ft 450 kts 127°
2026-05-05 12:53 48.51854 4.68631 33397 ft 449 kts 127°
2026-05-05 12:54 48.48220 4.76247 34083 ft 447 kts 127°
2026-05-05 12:54 48.46398 4.80055 34299 ft 448 kts 128°
2026-05-05 12:54 48.44567 4.83875 34521 ft 450 kts 128°
2026-05-05 12:55 48.42731 4.87702 34722 ft 451 kts 128°
2026-05-05 12:55 48.40895 4.91523 34928 ft 451 kts 128°
2026-05-05 12:55 48.39048 4.95362 35114 ft 452 kts 128°
2026-05-05 12:55 48.37199 4.99200 35302 ft 453 kts 128°
2026-05-05 12:56 48.35348 5.03037 35511 ft 454 kts 128°
2026-05-05 12:56 48.33514 5.06834 35706 ft 455 kts 128°
2026-05-05 12:56 48.31667 5.10709 35838 ft 458 kts 126°
2026-05-05 12:57 48.28898 5.19358 35857 ft 463 kts 109°
2026-05-05 12:57 48.27317 5.28758 35856 ft 465 kts 105°
2026-05-05 12:58 48.25939 5.38265 35867 ft 466 kts 105°
2026-05-05 12:58 48.24565 5.47759 35861 ft 466 kts 105°
2026-05-05 12:59 48.23161 5.57187 35832 ft 465 kts 105°
2026-05-05 12:59 48.21729 5.66653 35866 ft 465 kts 105°
2026-05-05 13:00 48.19561 5.80843 35865 ft 465 kts 106°
2026-05-05 13:01 48.16656 5.99680 35845 ft 465 kts 106°
2026-05-05 13:01 48.15187 6.09127 35865 ft 465 kts 106°
2026-05-05 13:02 48.13711 6.18564 35864 ft 465 kts 106°
2026-05-05 13:02 48.12226 6.28013 35863 ft 465 kts 106°
2026-05-05 13:03 48.10739 6.37406 35876 ft 465 kts 106°
2026-05-05 13:03 48.09236 6.46839 35879 ft 466 kts 107°
2026-05-05 13:04 48.07732 6.56236 35881 ft 467 kts 107°
2026-05-05 13:04 48.06213 6.65678 35879 ft 467 kts 107°
2026-05-05 13:05 48.04684 6.75112 35881 ft 467 kts 107°
2026-05-05 13:05 48.03145 6.84561 35871 ft 467 kts 107°
2026-05-05 13:06 48.01602 6.93988 35875 ft 468 kts 107°
2026-05-05 13:06 48.00046 7.03441 35868 ft 468 kts 107°
2026-05-05 13:07 47.98490 7.12834 35865 ft 468 kts 107°
2026-05-05 13:07 47.96920 7.22270 35863 ft 468 kts 107°
2026-05-05 13:08 47.95337 7.31725 35860 ft 469 kts 108°
2026-05-05 13:08 47.93746 7.41176 35865 ft 470 kts 108°
2026-05-05 13:09 47.92147 7.50622 35878 ft 470 kts 108°
2026-05-05 13:09 47.90367 7.59921 35880 ft 467 kts 113°
2026-05-05 13:10 47.88098 7.68986 35870 ft 467 kts 115°
2026-05-05 13:10 47.85738 7.78012 35875 ft 467 kts 115°
2026-05-05 13:11 47.83365 7.87020 35875 ft 467 kts 115°
2026-05-05 13:11 47.80993 7.96034 35875 ft 467 kts 115°
2026-05-05 13:12 47.78638 8.04964 35876 ft 467 kts 115°
2026-05-05 13:12 47.76297 8.13985 35877 ft 468 kts 114°
2026-05-05 13:13 47.74062 8.23070 35875 ft 468 kts 114°
2026-05-05 13:13 47.71831 8.32152 35872 ft 468 kts 114°
2026-05-05 13:14 47.69571 8.41230 35872 ft 468 kts 114°
2026-05-05 13:14 47.67285 8.50318 35872 ft 471 kts 115°
2026-05-05 13:15 47.64977 8.59354 35876 ft 471 kts 115°
2026-05-05 13:15 47.62641 8.68457 35878 ft 471 kts 115°
2026-05-05 13:16 47.60304 8.77534 35876 ft 471 kts 115°
2026-05-05 13:16 47.57222 8.86003 35872 ft 465 kts 127°
2026-05-05 13:17 47.53607 8.93958 35875 ft 465 kts 129°
2026-05-05 13:17 47.49928 9.01769 35872 ft 465 kts 129°
2026-05-05 13:18 47.46218 9.09632 35873 ft 466 kts 129°
2026-05-05 13:18 47.42858 9.17858 35867 ft 472 kts 117°
2026-05-05 13:19 47.41237 9.27354 35872 ft 486 kts 97°
2026-05-05 13:19 47.40997 9.37328 35861 ft 490 kts 94°
2026-05-05 13:20 47.40969 9.47421 35855 ft 491 kts 94°
2026-05-05 13:20 47.40922 9.57506 35856 ft 489 kts 94°
2026-05-05 13:21 47.40492 9.67470 35853 ft 483 kts 103°
2026-05-05 13:21 47.39341 9.77176 35857 ft 482 kts 104°
2026-05-05 13:22 47.38055 9.86908 35848 ft 482 kts 105°
2026-05-05 13:22 47.36754 9.96622 35846 ft 483 kts 105°
2026-05-05 13:23 47.35452 10.06390 35857 ft 488 kts 105°
2026-05-05 13:23 47.34139 10.16248 35850 ft 491 kts 105°
2026-05-05 13:24 47.32823 10.26071 35833 ft 491 kts 105°
2026-05-05 13:24 47.31486 10.35952 35844 ft 492 kts 105°
2026-05-05 13:25 47.30127 10.45829 35836 ft 491 kts 105°
2026-05-05 13:25 47.28759 10.55695 35835 ft 491 kts 105°
2026-05-05 13:26 47.27348 10.65457 35831 ft 490 kts 106°
2026-05-05 13:26 47.25828 10.75234 35830 ft 490 kts 107°
2026-05-05 13:27 47.24300 10.85012 35834 ft 490 kts 106°
2026-05-05 13:27 47.22778 10.94794 35838 ft 490 kts 106°
2026-05-05 13:28 47.21256 11.04578 35847 ft 490 kts 106°
2026-05-05 13:28 47.19726 11.14353 35852 ft 490 kts 107°
2026-05-05 13:29 47.18182 11.24126 35861 ft 491 kts 106°
2026-05-05 13:29 47.16645 11.33856 35854 ft 488 kts 106°
2026-05-05 13:30 47.15102 11.43567 35854 ft 488 kts 107°
2026-05-05 13:30 47.13555 11.53209 35868 ft 488 kts 107°
2026-05-05 13:31 47.11987 11.62922 35871 ft 488 kts 106°
2026-05-05 13:31 47.10415 11.72613 35896 ft 488 kts 107°
2026-05-05 13:32 47.08834 11.82299 35900 ft 487 kts 107°
2026-05-05 13:32 47.06557 11.91599 35901 ft 482 kts 117°
2026-05-05 13:33 47.03748 12.00452 35901 ft 481 kts 119°
2026-05-05 13:33 47.00833 12.09289 35908 ft 481 kts 119°
2026-05-05 13:34 46.97910 12.18135 35919 ft 481 kts 119°
2026-05-05 13:34 46.95014 12.26918 35970 ft 482 kts 119°
2026-05-05 13:35 46.92100 12.35751 35958 ft 482 kts 119°
2026-05-05 13:35 46.89169 12.44601 35973 ft 485 kts 119°
2026-05-05 13:36 46.86712 12.51998 35970 ft 486 kts 119°
2026-05-05 13:36 46.83753 12.60878 35966 ft 486 kts 119°
2026-05-05 13:37 46.80788 12.69750 35952 ft 486 kts 119°
2026-05-05 13:37 46.77814 12.78615 35949 ft 486 kts 119°
2026-05-05 13:38 46.74852 12.87415 35937 ft 485 kts 119°
2026-05-05 13:38 46.71875 12.96230 35954 ft 485 kts 119°
2026-05-05 13:39 46.68879 13.05069 35955 ft 485 kts 119°
2026-05-05 13:39 46.65928 13.13749 35966 ft 485 kts 119°
2026-05-05 13:40 46.62928 13.22541 35967 ft 485 kts 119°
2026-05-05 13:40 46.59934 13.31284 35979 ft 486 kts 119°
2026-05-05 13:41 46.56910 13.40087 35983 ft 487 kts 119°
2026-05-05 13:41 46.53875 13.48900 35980 ft 487 kts 119°
2026-05-05 13:42 46.50830 13.57705 35974 ft 487 kts 119°
2026-05-05 13:42 46.47797 13.66507 35969 ft 488 kts 117°
2026-05-05 13:43 46.45737 13.75855 35976 ft 491 kts 105°
2026-05-05 13:43 46.44266 13.85549 35967 ft 493 kts 103°
2026-05-05 13:44 46.42883 13.95303 35961 ft 493 kts 103°
2026-05-05 13:44 46.41480 14.05055 35961 ft 494 kts 104°
2026-05-05 13:45 46.40054 14.14790 35979 ft 494 kts 104°
2026-05-05 13:45 46.38618 14.24473 35988 ft 493 kts 104°
2026-05-05 13:46 46.37173 14.34156 36003 ft 492 kts 104°
2026-05-05 13:46 46.35722 14.43810 36008 ft 492 kts 104°
2026-05-05 13:47 46.34261 14.53479 36011 ft 492 kts 104°
2026-05-05 13:47 46.32789 14.63159 36004 ft 493 kts 104°
2026-05-05 13:48 46.31302 14.72878 35990 ft 494 kts 104°
2026-05-05 13:48 46.29808 14.82590 35977 ft 494 kts 104°
2026-05-05 13:49 46.28320 14.92210 35957 ft 494 kts 105°
2026-05-05 13:49 46.26811 15.01901 35945 ft 490 kts 104°
2026-05-05 13:50 46.25310 15.11488 35946 ft 488 kts 104°
2026-05-05 13:50 46.23803 15.21054 35947 ft 488 kts 104°
2026-05-05 13:51 46.22288 15.30606 35946 ft 488 kts 104°
2026-05-05 13:51 46.20775 15.40099 35953 ft 488 kts 104°
2026-05-05 13:52 46.19242 15.49659 35960 ft 488 kts 104°
2026-05-05 13:52 46.17704 15.59193 35962 ft 487 kts 104°
2026-05-05 13:53 46.15540 15.68365 35963 ft 485 kts 113°
2026-05-05 13:53 46.13016 15.77394 35961 ft 485 kts 114°
2026-05-05 13:54 46.10435 15.86382 35967 ft 485 kts 114°
2026-05-05 13:54 46.07851 15.95370 35963 ft 485 kts 114°
2026-05-05 13:55 46.05269 16.04365 35962 ft 485 kts 114°
2026-05-05 13:55 46.02702 16.13290 35963 ft 486 kts 114°
2026-05-05 13:56 46.00112 16.22264 35967 ft 485 kts 114°
2026-05-05 13:56 45.97512 16.31236 35967 ft 485 kts 114°
2026-05-05 13:57 45.94909 16.40187 35969 ft 485 kts 114°
2026-05-05 13:57 45.92313 16.49083 35962 ft 485 kts 115°
2026-05-05 13:58 45.89700 16.58003 35958 ft 484 kts 115°
2026-05-05 13:58 45.87077 16.66925 35953 ft 484 kts 115°
2026-05-05 13:59 45.83134 16.80278 35953 ft 485 kts 115°
2026-05-05 14:00 45.79618 16.92127 35945 ft 485 kts 115°
2026-05-05 14:00 45.76536 17.02465 35952 ft 485 kts 115°
2026-05-05 14:01 45.73880 17.11340 35943 ft 485 kts 115°
2026-05-05 14:01 45.71213 17.20220 35945 ft 486 kts 115°
2026-05-05 14:02 45.68536 17.29103 35943 ft 486 kts 115°
2026-05-05 14:02 45.65852 17.37975 35944 ft 486 kts 115°
2026-05-05 14:03 45.63160 17.46846 35937 ft 486 kts 115°
2026-05-05 14:03 45.60458 17.55717 35943 ft 487 kts 115°
2026-05-05 14:04 45.57748 17.64585 35942 ft 488 kts 115°
2026-05-05 14:04 45.55040 17.73414 35936 ft 488 kts 115°
2026-05-05 14:05 45.52311 17.82281 35932 ft 488 kts 115°
2026-05-05 14:05 45.49562 17.91180 35933 ft 491 kts 115°
2026-05-05 14:06 45.46800 18.00091 35934 ft 492 kts 115°
2026-05-05 14:06 45.44042 18.08963 35933 ft 492 kts 115°
2026-05-05 14:07 45.41257 18.17882 35929 ft 492 kts 115°
2026-05-05 14:07 45.38466 18.26795 35931 ft 492 kts 115°
2026-05-05 14:08 45.35670 18.35693 35934 ft 493 kts 115°
2026-05-05 14:08 45.32868 18.44579 35936 ft 492 kts 115°
2026-05-05 14:09 45.30076 18.53401 35933 ft 492 kts 115°
2026-05-05 14:09 45.27268 18.62245 35933 ft 491 kts 115°
2026-05-05 14:10 45.24451 18.71085 35933 ft 491 kts 115°
2026-05-05 14:10 45.21627 18.79921 35936 ft 491 kts 115°
2026-05-05 14:11 45.18802 18.88724 35935 ft 491 kts 115°
2026-05-05 14:11 45.15986 18.97475 35936 ft 490 kts 115°
2026-05-05 14:12 45.13138 19.06247 35907 ft 489 kts 117°
2026-05-05 14:12 45.09879 19.14605 36036 ft 485 kts 120°
2026-05-05 14:13 45.08195 19.18769 36144 ft 488 kts 121°
2026-05-05 14:13 45.06491 19.22942 36312 ft 490 kts 121°
2026-05-05 14:13 45.04781 19.27111 36555 ft 490 kts 121°
2026-05-05 14:13 45.03069 19.31277 36766 ft 490 kts 121°
2026-05-05 14:14 45.01351 19.35456 36929 ft 492 kts 121°
2026-05-05 14:14 44.99634 19.39629 36936 ft 491 kts 121°
2026-05-05 14:14 44.96203 19.47959 36936 ft 489 kts 121°
2026-05-05 14:15 44.92781 19.56246 36937 ft 488 kts 121°
2026-05-05 14:15 44.89361 19.64505 36940 ft 488 kts 121°
2026-05-05 14:16 44.85953 19.72709 36943 ft 488 kts 121°
2026-05-05 14:16 44.82515 19.80963 36946 ft 488 kts 121°
2026-05-05 14:17 44.79073 19.89201 36949 ft 489 kts 121°
2026-05-05 14:17 44.75614 19.97455 36950 ft 489 kts 121°
2026-05-05 14:18 44.72147 20.05705 36957 ft 490 kts 121°
2026-05-05 14:18 44.68677 20.13939 36961 ft 489 kts 121°
2026-05-05 14:19 44.65200 20.22166 36965 ft 489 kts 121°
2026-05-05 14:19 44.61717 20.30383 36964 ft 489 kts 121°
2026-05-05 14:20 44.58227 20.38591 36970 ft 489 kts 121°
2026-05-05 14:20 44.54756 20.46732 36965 ft 489 kts 121°
2026-05-05 14:21 44.51258 20.54912 36965 ft 489 kts 121°
2026-05-05 14:21 44.47762 20.63065 36966 ft 489 kts 121°
2026-05-05 14:22 44.44252 20.71228 36964 ft 490 kts 121°
2026-05-05 14:22 44.40731 20.79391 36962 ft 490 kts 121°
2026-05-05 14:23 44.37795 20.86183 36965 ft 490 kts 121°
2026-05-05 14:23 44.34261 20.94332 36962 ft 490 kts 121°
2026-05-05 14:24 44.30720 21.02475 36967 ft 490 kts 121°
2026-05-05 14:24 44.27175 21.10608 36964 ft 490 kts 121°
2026-05-05 14:25 44.23621 21.18736 36965 ft 490 kts 121°
2026-05-05 14:25 44.20088 21.26794 36967 ft 490 kts 121°
2026-05-05 14:26 44.16530 21.34885 36968 ft 490 kts 121°
2026-05-05 14:26 44.12954 21.42996 36976 ft 490 kts 121°
2026-05-05 14:27 44.09377 21.51084 36969 ft 491 kts 121°
2026-05-05 14:27 44.05790 21.59174 36983 ft 492 kts 121°
2026-05-05 14:28 44.02188 21.67275 36976 ft 493 kts 121°
2026-05-05 14:28 43.98598 21.75324 36981 ft 493 kts 121°
2026-05-05 14:29 43.94985 21.83405 36987 ft 493 kts 121°
2026-05-05 14:29 43.91363 21.91482 36991 ft 493 kts 121°
2026-05-05 14:30 43.87736 21.99548 36988 ft 493 kts 121°
2026-05-05 14:30 43.84087 22.07638 36991 ft 493 kts 121°
2026-05-05 14:31 43.80461 22.15659 36989 ft 493 kts 121°
2026-05-05 14:31 43.76818 22.23695 36989 ft 493 kts 121°
2026-05-05 14:32 43.73168 22.31723 36982 ft 494 kts 121°
2026-05-05 14:32 43.69503 22.39771 36986 ft 494 kts 121°
2026-05-05 14:33 43.66253 22.48124 36991 ft 493 kts 115°
2026-05-05 14:33 43.63140 22.56578 37000 ft 493 kts 115°
2026-05-05 14:34 43.60046 22.65040 37002 ft 493 kts 115°
2026-05-05 14:34 43.56947 22.73475 37002 ft 493 kts 115°
2026-05-05 14:35 43.53851 22.81857 36992 ft 494 kts 115°
2026-05-05 14:35 43.50720 22.90299 36994 ft 494 kts 115°
2026-05-05 14:36 43.47577 22.98748 37000 ft 494 kts 115°
2026-05-05 14:36 43.44441 23.07153 37007 ft 495 kts 115°
2026-05-05 14:37 43.41290 23.15574 36999 ft 494 kts 115°
2026-05-05 14:37 43.38139 23.23971 37003 ft 494 kts 115°
2026-05-05 14:38 43.34983 23.32356 37004 ft 493 kts 115°
2026-05-05 14:38 43.31838 23.40686 37004 ft 493 kts 115°
2026-05-05 14:39 43.28678 23.49031 37007 ft 493 kts 115°
2026-05-05 14:39 43.25501 23.57397 37013 ft 494 kts 115°
2026-05-05 14:40 43.22319 23.65752 37022 ft 494 kts 115°
2026-05-05 14:40 43.19131 23.74096 37012 ft 493 kts 115°
2026-05-05 14:41 43.15956 23.82383 37015 ft 493 kts 115°
2026-05-05 14:41 43.12762 23.90693 37019 ft 493 kts 115°
2026-05-05 14:42 43.09557 23.99010 37024 ft 493 kts 115°
2026-05-05 14:42 43.06351 24.07307 37024 ft 493 kts 115°
2026-05-05 14:43 43.03141 24.15585 37025 ft 493 kts 115°
2026-05-05 14:43 42.99921 24.23868 37035 ft 493 kts 115°
2026-05-05 14:44 42.96697 24.32134 37030 ft 493 kts 115°
2026-05-05 14:44 42.93469 24.40391 37030 ft 493 kts 115°
2026-05-05 14:45 42.90230 24.48653 37032 ft 493 kts 116°
2026-05-05 14:45 42.87009 24.56841 37033 ft 493 kts 116°
2026-05-05 14:46 42.83768 24.65067 37023 ft 493 kts 116°
2026-05-05 14:46 42.80510 24.73316 37027 ft 494 kts 116°
2026-05-05 14:47 42.77243 24.81550 37035 ft 494 kts 116°
2026-05-05 14:47 42.73969 24.89773 37022 ft 493 kts 116°
2026-05-05 14:48 42.70698 24.97972 37019 ft 493 kts 116°
2026-05-05 14:48 42.67420 25.06170 37024 ft 493 kts 116°
2026-05-05 14:49 42.64154 25.14311 37013 ft 493 kts 116°
2026-05-05 14:49 42.60862 25.22499 37015 ft 493 kts 116°
2026-05-05 14:50 42.57564 25.30678 37015 ft 494 kts 116°
2026-05-05 14:50 42.54259 25.38850 37019 ft 494 kts 116°
2026-05-05 14:51 42.50972 25.46954 37012 ft 494 kts 116°
2026-05-05 14:51 42.47653 25.55113 37007 ft 494 kts 116°
2026-05-05 14:52 42.44330 25.63259 37007 ft 494 kts 116°
2026-05-05 14:52 42.41000 25.71403 37011 ft 494 kts 116°
2026-05-05 14:53 42.37663 25.79538 37002 ft 493 kts 116°
2026-05-05 14:53 42.34323 25.87658 37002 ft 494 kts 116°
2026-05-05 14:54 42.30972 25.95783 37011 ft 494 kts 117°
2026-05-05 14:54 42.27644 26.03829 36996 ft 493 kts 117°
2026-05-05 14:55 42.24288 26.11921 36996 ft 493 kts 117°
2026-05-05 14:55 42.20933 26.19991 37012 ft 493 kts 117°
2026-05-05 14:56 42.17567 26.28059 37006 ft 492 kts 117°
2026-05-05 14:56 42.14222 26.36053 37008 ft 492 kts 117°
2026-05-05 14:57 42.10858 26.44077 37005 ft 492 kts 117°
2026-05-05 14:57 42.07481 26.52107 37016 ft 492 kts 117°
2026-05-05 14:58 42.04112 26.60098 37014 ft 492 kts 117°
2026-05-05 14:58 42.00733 26.68091 37012 ft 492 kts 117°
2026-05-05 14:59 41.97090 26.75885 37025 ft 495 kts 127°
2026-05-05 14:59 41.92190 26.82390 37017 ft 497 kts 137°
2026-05-05 15:00 41.87824 26.87439 37022 ft 499 kts 139°
2026-05-05 15:00 41.81596 26.94464 37021 ft 500 kts 139°
2026-05-05 15:01 41.76287 27.00477 37020 ft 499 kts 139°
2026-05-05 15:01 41.70994 27.06494 37020 ft 498 kts 139°
2026-05-05 15:02 41.65741 27.12465 37021 ft 498 kts 139°
2026-05-05 15:02 41.60441 27.18476 37032 ft 500 kts 139°
2026-05-05 15:03 41.55137 27.24476 37031 ft 499 kts 139°
2026-05-05 15:03 41.49841 27.30464 37030 ft 499 kts 138°
2026-05-05 15:04 41.45262 27.37354 37039 ft 496 kts 125°
2026-05-05 15:04 41.41206 27.44791 37039 ft 496 kts 123°
2026-05-05 15:05 41.35262 27.56012 37051 ft 495 kts 123°
2026-05-05 15:06 41.31268 27.63491 37060 ft 495 kts 123°
2026-05-05 15:06 41.27266 27.70939 37066 ft 495 kts 124°
2026-05-05 15:07 41.23256 27.78375 37073 ft 495 kts 124°
2026-05-05 15:07 41.19921 27.84546 37075 ft 495 kts 124°
2026-05-05 15:08 41.15904 27.91964 37073 ft 495 kts 124°
2026-05-05 15:08 41.11928 27.99415 37075 ft 494 kts 123°
2026-05-05 15:09 41.08029 28.06938 37084 ft 494 kts 122°
2026-05-05 15:09 41.04135 28.14437 37066 ft 492 kts 123°
2026-05-05 15:10 41.00261 28.21843 37062 ft 492 kts 123°
2026-05-05 15:10 40.96346 28.29293 37070 ft 493 kts 123°
2026-05-05 15:11 40.92420 28.36742 37071 ft 494 kts 123°
2026-05-05 15:11 40.88492 28.44177 37068 ft 493 kts 123°
2026-05-05 15:12 40.84558 28.51608 37072 ft 492 kts 123°
2026-05-05 15:12 40.80651 28.58969 37072 ft 492 kts 123°
2026-05-05 15:13 40.76719 28.66361 37069 ft 492 kts 124°
2026-05-05 15:13 40.72771 28.73766 37064 ft 492 kts 124°
2026-05-05 15:14 40.68828 28.81142 37064 ft 492 kts 124°
2026-05-05 15:14 40.64878 28.88516 37064 ft 492 kts 124°
2026-05-05 15:15 40.60927 28.95873 37071 ft 492 kts 124°
2026-05-05 15:15 40.56988 29.03189 37064 ft 493 kts 124°
2026-05-05 15:16 40.52994 29.10592 37063 ft 493 kts 124°
2026-05-05 15:16 40.49037 29.17907 37064 ft 493 kts 124°
2026-05-05 15:17 40.45049 29.25253 37074 ft 493 kts 124°
2026-05-05 15:17 40.41042 29.32563 37070 ft 493 kts 125°
2026-05-05 15:18 40.37029 29.39858 37072 ft 493 kts 125°
2026-05-05 15:18 40.33015 29.47146 37074 ft 493 kts 125°
2026-05-05 15:19 40.29014 29.54370 37083 ft 493 kts 127°
2026-05-05 15:19 40.24080 29.60580 37075 ft 495 kts 146°
2026-05-05 15:20 40.18088 29.65053 37076 ft 496 kts 153°
2026-05-05 15:20 40.11919 29.69148 37075 ft 496 kts 154°
2026-05-05 15:21 40.05566 29.72500 37080 ft 495 kts 167°
2026-05-05 15:21 40.02182 29.73218 37080 ft 493 kts 178°
2026-05-05 15:21 39.98767 29.73195 37077 ft 490 kts 185°
2026-05-05 15:22 39.91945 29.72641 37080 ft 492 kts 181°
2026-05-05 15:22 39.85197 29.74166 37079 ft 495 kts 161°
2026-05-05 15:23 39.78771 29.77482 37072 ft 496 kts 157°
2026-05-05 15:23 39.72451 29.81111 37075 ft 497 kts 156°
2026-05-05 15:24 39.66163 29.84727 37074 ft 498 kts 157°
2026-05-05 15:24 39.59798 29.88327 37066 ft 498 kts 157°
2026-05-05 15:25 39.53442 29.91889 37067 ft 498 kts 158°
2026-05-05 15:25 39.47083 29.95457 37061 ft 498 kts 157°
2026-05-05 15:26 39.40736 29.99049 37057 ft 498 kts 157°
2026-05-05 15:26 39.34427 30.02617 37055 ft 498 kts 157°
2026-05-05 15:27 39.28074 30.06196 37050 ft 498 kts 157°
2026-05-05 15:27 39.21716 30.09769 37044 ft 498 kts 157°
2026-05-05 15:28 39.15363 30.13331 37046 ft 498 kts 157°
2026-05-05 15:28 39.09052 30.17016 37036 ft 499 kts 152°
2026-05-05 15:29 39.03601 30.22413 37040 ft 499 kts 135°
2026-05-05 15:29 38.98808 30.28889 37034 ft 500 kts 132°
2026-05-05 15:30 38.94127 30.35518 37039 ft 500 kts 132°
2026-05-05 15:30 38.89446 30.42118 37036 ft 500 kts 132°
2026-05-05 15:31 38.84728 30.48698 37037 ft 501 kts 132°
2026-05-05 15:31 38.79997 30.55261 37031 ft 501 kts 132°
2026-05-05 15:32 38.75373 30.61944 37033 ft 500 kts 130°
2026-05-05 15:32 38.70837 30.68703 37033 ft 501 kts 130°
2026-05-05 15:33 38.66279 30.75451 37029 ft 501 kts 130°
2026-05-05 15:33 38.61725 30.82135 37033 ft 501 kts 131°
2026-05-05 15:34 38.57138 30.88833 37031 ft 501 kts 131°
2026-05-05 15:34 38.52546 30.95525 37037 ft 501 kts 131°
2026-05-05 15:35 38.47947 31.02214 37034 ft 501 kts 131°
2026-05-05 15:35 38.43319 31.08891 37033 ft 502 kts 131°
2026-05-05 15:36 38.38697 31.15496 37032 ft 502 kts 131°
2026-05-05 15:36 38.34049 31.22129 37030 ft 502 kts 131°
2026-05-05 15:37 38.29401 31.28761 37035 ft 502 kts 131°
2026-05-05 15:37 38.24741 31.35400 37033 ft 502 kts 131°
2026-05-05 15:38 38.20068 31.42041 37034 ft 503 kts 131°
2026-05-05 15:38 38.15398 31.48664 37034 ft 502 kts 131°
2026-05-05 15:39 38.10758 31.55240 37037 ft 503 kts 131°
2026-05-05 15:39 38.06362 31.62142 37035 ft 503 kts 129°
2026-05-05 15:40 38.01761 31.68872 37036 ft 504 kts 131°
2026-05-05 15:40 37.97060 31.75485 37040 ft 504 kts 131°
2026-05-05 15:41 37.92387 31.82061 37042 ft 504 kts 131°
2026-05-05 15:41 37.87706 31.88680 37039 ft 505 kts 131°
2026-05-05 15:42 37.83023 31.95306 37042 ft 505 kts 131°
2026-05-05 15:42 37.78338 32.01923 37030 ft 505 kts 131°
2026-05-05 15:43 37.73680 32.08486 37034 ft 504 kts 131°
2026-05-05 15:43 37.68988 32.15083 37025 ft 505 kts 132°
2026-05-05 15:44 37.64276 32.21695 37021 ft 506 kts 132°
2026-05-05 15:44 37.59560 32.28297 37021 ft 506 kts 132°
2026-05-05 15:45 37.54842 32.34890 37025 ft 506 kts 132°
2026-05-05 15:45 37.50127 32.41466 37018 ft 506 kts 132°
2026-05-05 15:46 37.45394 32.48052 37018 ft 507 kts 132°
2026-05-05 15:46 37.40663 32.54622 37018 ft 507 kts 132°
2026-05-05 15:47 37.35948 32.61156 37017 ft 507 kts 132°
2026-05-05 15:47 37.31201 32.67723 37021 ft 508 kts 132°
2026-05-05 15:48 37.26441 32.74292 37021 ft 508 kts 132°
2026-05-05 15:48 37.21680 32.80851 37020 ft 508 kts 132°
2026-05-05 15:49 37.16914 32.87403 37020 ft 508 kts 133°
2026-05-05 15:49 37.12143 32.93949 37023 ft 509 kts 133°
2026-05-05 15:50 37.07361 33.00498 37012 ft 510 kts 133°
2026-05-05 15:50 37.02570 33.07044 37009 ft 510 kts 133°
2026-05-05 15:51 36.97790 33.13563 37009 ft 511 kts 133°
2026-05-05 15:51 36.92975 33.20116 37000 ft 511 kts 133°
2026-05-05 15:52 36.88181 33.26597 36994 ft 511 kts 135°
2026-05-05 15:52 36.82594 33.32050 36995 ft 508 kts 148°
2026-05-05 15:53 36.76620 33.36779 36990 ft 508 kts 150°
2026-05-05 15:53 36.70578 33.41392 36958 ft 508 kts 150°
2026-05-05 15:54 36.64580 33.45976 36974 ft 508 kts 150°
2026-05-05 15:54 36.58568 33.50592 36961 ft 508 kts 150°
2026-05-05 15:55 36.53527 33.54467 36963 ft 508 kts 150°
2026-05-05 15:55 36.47551 33.59055 36955 ft 508 kts 150°
2026-05-05 15:56 36.41539 33.63662 36956 ft 508 kts 150°
2026-05-05 15:56 36.35519 33.68265 36963 ft 508 kts 150°
2026-05-05 15:57 36.29490 33.72864 36956 ft 509 kts 150°
2026-05-05 15:57 36.23453 33.77466 36958 ft 509 kts 150°
2026-05-05 15:58 36.17404 33.82064 36958 ft 510 kts 150°
2026-05-05 15:58 36.11396 33.86618 36958 ft 510 kts 151°
2026-05-05 15:59 36.05333 33.91205 36963 ft 510 kts 151°
2026-05-05 15:59 35.99266 33.95790 36955 ft 510 kts 151°
2026-05-05 16:00 35.93263 34.00448 36961 ft 509 kts 145°
2026-05-05 16:00 35.90646 34.03394 36971 ft 511 kts 133°
2026-05-05 16:00 35.88389 34.06780 36958 ft 512 kts 129°
2026-05-05 16:01 35.84059 34.13693 36972 ft 513 kts 129°
2026-05-05 16:01 35.79712 34.20672 36974 ft 513 kts 129°
2026-05-05 16:02 35.75360 34.27650 36974 ft 514 kts 129°
2026-05-05 16:02 35.70988 34.34649 36973 ft 515 kts 129°
2026-05-05 16:03 35.66616 34.41634 36974 ft 515 kts 129°
2026-05-05 16:03 35.62259 34.48580 36984 ft 515 kts 130°
2026-05-05 16:04 35.57864 34.55573 36980 ft 518 kts 130°
2026-05-05 16:04 35.53454 34.62576 36979 ft 518 kts 130°
2026-05-05 16:05 35.49028 34.69590 36982 ft 518 kts 130°
2026-05-05 16:05 35.44606 34.76583 36977 ft 518 kts 130°
2026-05-05 16:06 35.40208 34.83525 36980 ft 519 kts 130°
2026-05-05 16:06 35.35771 34.90513 36980 ft 520 kts 130°
2026-05-05 16:07 35.31322 34.97508 36987 ft 520 kts 130°
2026-05-05 16:07 35.26876 35.04483 36980 ft 520 kts 131°
2026-05-05 16:08 35.22424 35.11453 36981 ft 519 kts 131°
2026-05-05 16:08 35.17973 35.18408 36980 ft 519 kts 131°
2026-05-05 16:09 35.13510 35.25367 36974 ft 519 kts 131°
2026-05-05 16:09 35.09048 35.32313 36981 ft 520 kts 131°
2026-05-05 16:10 35.04605 35.39215 36984 ft 520 kts 131°
2026-05-05 16:10 35.00133 35.46150 36986 ft 520 kts 131°
2026-05-05 16:11 34.95656 35.53078 36989 ft 520 kts 132°
2026-05-05 16:12 34.86694 35.66905 36995 ft 519 kts 132°
2026-05-05 16:13 34.75476 35.84136 36996 ft 518 kts 133°
2026-05-05 16:13 34.70989 35.91003 36996 ft 518 kts 133°
2026-05-05 16:14 34.62069 36.04620 36262 ft 514 kts 133°
2026-05-05 16:15 34.57578 36.11449 34644 ft 522 kts 133°
2026-05-05 16:15 34.53012 36.18383 32967 ft 530 kts 133°
2026-05-05 16:16 34.48372 36.25416 31099 ft 539 kts 133°
2026-05-05 16:16 34.43674 36.32527 29450 ft 540 kts 133°
2026-05-05 16:17 34.38994 36.39593 27868 ft 535 kts 133°
2026-05-05 16:17 34.36670 36.43099 27141 ft 532 kts 133°
2026-05-05 16:18 34.32052 36.50053 25808 ft 527 kts 133°
2026-05-05 16:18 34.29730 36.53439 25226 ft 518 kts 138°
2026-05-05 16:18 34.23950 36.57943 24032 ft 478 kts 172°
2026-05-05 16:19 34.20763 36.58598 23297 ft 454 kts 189°
2026-05-05 16:19 34.17763 36.58203 22809 ft 429 kts 201°
2026-05-05 16:19 34.11968 36.56874 21565 ft 422 kts 199°
2026-05-05 16:20 34.06174 36.55929 20296 ft 416 kts 197°
2026-05-05 16:20 34.00530 36.55168 17951 ft 406 kts 195°
2026-05-05 16:21 33.94924 36.54457 16687 ft 399 kts 194°
2026-05-05 16:22 33.86766 36.53454 14930 ft 390 kts 193°
2026-05-05 16:22 33.81422 36.52767 13758 ft 383 kts 193°
2026-05-05 16:23 33.76290 36.52060 12369 ft 347 kts 192°
2026-05-05 16:23 33.73990 36.51753 11833 ft 320 kts 193°
2026-05-05 16:23 33.69764 36.51173 10480 ft 293 kts 192°
2026-05-05 16:24 33.67770 36.50896 10055 ft 286 kts 192°
2026-05-05 16:24 33.65764 36.50717 9986 ft 295 kts 182°
2026-05-05 16:24 33.62109 36.52982 9832 ft 310 kts 132°
2026-05-05 16:25 33.61084 36.55237 9462 ft 314 kts 110°
2026-05-05 16:25 33.59940 36.60300 8486 ft 316 kts 105°
2026-05-05 16:25 33.59408 36.62861 7564 ft 315 kts 105°
2026-05-05 16:26 33.58104 36.67791 5614 ft 303 kts 124°
2026-05-05 16:26 33.54868 36.70013 4164 ft 256 kts 190°
2026-05-05 16:27 33.53386 36.69232 4000 ft 219 kts 229°
2026-05-05 16:27 33.52750 36.67764 3972 ft 186 kts 257°
2026-05-05 16:27 33.52473 36.66315 3897 ft 173 kts 259°
2026-05-05 16:27 33.52069 36.64975 3761 ft 171 kts 243°
2026-05-05 16:28 33.51364 36.63835 3575 ft 169 kts 232°
2026-05-05 16:28 33.50617 36.62822 3499 ft 154 kts 233°
2026-05-05 16:28 33.49940 36.61857 3483 ft 151 kts 234°
2026-05-05 16:28 33.49263 36.60900 3481 ft 145 kts 233°
2026-05-05 16:29 33.48622 36.60006 3475 ft 141 kts 234°
2026-05-05 16:29 33.47970 36.59130 3378 ft 138 kts 233°
2026-05-05 16:29 33.47365 36.58318 3180 ft 124 kts 234°
2026-05-05 16:29 33.46810 36.57567 3002 ft 118 kts 235°
2026-05-05 16:30 33.46266 36.56829 2854 ft 118 kts 233°
2026-05-05 16:30 33.45728 36.56103 2675 ft 117 kts 232°
2026-05-05 16:30 33.45184 36.55368 2498 ft 118 kts 230°
2026-05-05 16:30 33.44637 36.54630 2345 ft 119 kts 229°
2026-05-05 16:31 33.44095 36.53900 2186 ft 116 kts 228°
2026-05-05 16:31 33.43559 36.53187 2059 ft 115 kts 228°
2026-05-05 16:31 33.43067 36.52521 2005 ft 91 kts 230°
2026-05-05 16:31 33.42726 36.52054 2006 ft 60 kts 228°
2026-05-05 16:32 33.42523 36.51782 2004 ft 31 kts 228°
2026-05-05 16:32 33.42385 36.51598 2003 ft 28 kts 224°
2026-05-05 16:32 33.42239 36.51507 2007 ft 11 kts 201°
2026-05-05 16:32 33.42163 36.51475 2007 ft 12 kts 199°
2026-05-05 16:33 33.42075 36.51439 2006 ft 14 kts 200°
2026-05-05 16:33 33.41992 36.51368 2003 ft 14 kts 229°
2026-05-05 16:33 33.41974 36.51341 2001 ft 0 kts 230°
2026-05-05 16:34 33.41968 36.51333 2001 ft 4 kts 230°
2026-05-05 16:34 33.41939 36.51293 2004 ft 7 kts 228°
2026-05-05 16:34 33.41903 36.51244 2002 ft 8 kts 228°
2026-05-05 16:34 33.41865 36.51231 2003 ft 5 kts 164°
2026-05-05 16:35 33.41833 36.51258 2003 ft 7 kts 140°
2026-05-05 16:35 33.41790 36.51304 2002 ft 9 kts 139°
2026-05-05 16:35 33.41737 36.51361 2001 ft 11 kts 139°
2026-05-05 16:35 33.41670 36.51412 2002 ft 11 kts 176°
2026-05-05 16:36 33.41593 36.51404 2004 ft 11 kts 184°
2026-05-05 16:36 33.41511 36.51398 2001 ft 13 kts 183°
2026-05-05 16:36 33.41421 36.51392 2001 ft 13 kts 183°
2026-05-05 16:36 33.41353 36.51369 2003 ft 9 kts 225°
2026-05-05 16:37 33.41324 36.51328 2002 ft 0 kts 229°
2026-05-05 16:37 33.41318 36.51320 2002 ft 2 kts 229°
2026-05-05 16:37 33.41316 36.51317 2000 ft 0 kts 229°